Location: Boiro
(42.6475°N, 8.8834°W)
Time: 12:31:14
(UTC+02:00)

deb Agena D - Pass Details

Date: 06 July 2022
Orbit: 997 x 1025 km, 100.1° (Epoch: 16 August)

Event Time Altitude Azimuth Distance (km) Brightness Sun altitude
Exits shadow 02:03:04 46° 201° (SSW) 1,352 ? -24.1°
Maximum altitude 02:04:49 62° 257° (WSW) 1,146 ? -24.1°
Drops below altitude 10° 02:11:07 10° 338° (NNW) 2,827 ? -24.3°
Sets 02:13:40 0° 342° (NNW) 3,781 ? -24.4°
